#timestamp,LO_Frequency,Hit,StdDev 
1703296815.4,286047001.4,N
1703296835.2,286046999.8,N
1703296855.1,286046998.6,N
1703296856.0,286046998.6,N
1703296875.8,286047002.8,N
1703296895.7,286047002.6,N
1703296915.5,286046997.2,N
1703296935.3,286046997.6,N
1703296955.2,286046998.9,N
1703296975.0,286047000.7,N
1703296975.9,286047000.7,N
1703296995.8,286047001.2,N
1703297015.6,286047002.6,N
1703297035.4,286047000.8,N
1703297055.3,286047001.6,N
1703297075.1,286047000.5,N
1703297095.8,286047004.3,N
1703297115.7,286047004.0,N
1703297135.5,286047001.9,N
1703297155.4,286047000.2,N
1703297175.2,286046996.9,N
1703297195.0,286046998.6,N
1703297195.9,286046998.6,N
1703297215.8,286047001.0,N
1703297235.6,286046999.4,N
1703297255.4,286047001.5,N
1703297275.3,286047000.4,N
1703297295.1,286047002.8,N
1703297315.9,286046998.4,N
1703297335.7,286046996.6,N
1703297355.5,286046998.4,N
1703297375.4,286046998.6,N
1703297395.2,286046998.3,N
1703297415.0,286046996.7,N
1703297415.9,286046996.7,N
1703297435.8,286046999.6,N
1703297455.6,286046997.0,N
1703297475.5,286047000.3,N
1703297495.3,286047000.8,N
1703297515.1,286046999.7,N
1703297535.9,286047003.9,N
1703297555.7,286046998.9,N
1703297575.5,286046999.4,N
1703297595.4,286047000.7,N
1703297615.2,286047000.4,N
1703297635.1,286047002.8,N
1703297636.0,286047002.8,N
1703297655.8,286047000.3,N
1703297675.6,286047002.5,N
1703297695.5,286046998.2,N
1703297715.3,286046999.0,N
1703297735.1,286046998.7,N
1703297755.9,286046998.2,N
1703297775.7,286046998.5,N
1703297795.6,286047000.4,N
1703297815.4,286046999.3,N
1703297835.2,286046999.3,N
1703297855.1,286046999.2,N
1703297856.0,286046999.2,N
1703297875.8,286046997.0,N
1703297895.7,286047010.8,Y
1703297915.5,286047001.1,P
1703297935.3,286047010.4,P
1703297955.2,286047011.8,N
1703297975.9,286047009.7,N
1703297995.7,286047009.5,N
1703298015.6,286047009.6,N
1703298035.4,286047009.7,N
1703298055.2,286047009.6,N
1703298075.1,286047010.1,N
1703298076.0,286047010.1,N
1703298095.8,286047012.0,Y
1703298115.7,286047003.4,P
1703298135.5,286047004.0,N
1703298155.3,286047001.3,N
1703298175.2,286047001.3,N
1703298195.0,286047002.1,N
1703298195.9,286047002.1,N
1703298215.8,286047000.6,N
1703298235.6,286047002.3,N
1703298255.4,286047001.3,N
1703298275.3,286047003.3,N
1703298295.1,286047003.8,N
1703298315.8,286047004.3,N
1703298335.7,286047003.0,N
1703298355.5,286047002.9,N
1703298375.4,286047003.3,N
1703298395.2,286047003.2,N
1703298415.0,286047004.3,N
1703298415.9,286047004.3,N
1703298435.8,286047005.5,Y
1703298455.6,286047001.1,P
1703298475.4,286047000.8,N
1703298495.3,286047000.3,N
1703298515.1,286047002.3,N
1703298535.9,286047002.2,N
1703298555.7,286046999.8,N
1703298575.5,286047002.1,N
1703298595.4,286047003.2,N
1703298615.2,286047001.9,N
1703298635.0,286047003.8,Y
1703298636.0,286047003.8,P
1703298655.8,286046999.8,N
1703298675.6,286047002.4,N
1703298695.5,286047002.0,N
1703298715.3,286047002.5,N
1703298735.1,286047001.9,N
1703298755.9,286047003.6,Y
1703298775.7,286047000.5,P
1703298795.6,286047000.9,N
1703298815.4,286047000.9,N
1703298835.2,286046999.8,N
1703298855.1,286046998.3,N
1703298856.0,286046998.3,N
1703298875.8,286046999.3,N
1703298895.6,286046998.5,N
1703298915.5,286047000.2,N
1703298935.3,286047000.4,N
1703298955.2,286047000.2,N
1703298975.9,286046998.1,N
1703298995.7,286047000.0,N
1703299015.6,286046999.7,N
1703299035.4,286046999.8,N
1703299055.2,286047000.1,N
1703299075.1,286047002.3,N
1703299076.0,286047002.3,N
1703299095.8,286047000.0,N
1703299115.7,286047000.6,N
1703299135.5,286047001.0,N
1703299155.3,286047001.0,N
1703299175.2,286046998.4,N
1703299195.9,286047000.4,N
1703299215.7,286046998.3,N
1703299235.6,286046999.7,N
1703299255.4,286047000.2,N
1703299275.3,286047000.7,N
1703299295.1,286047000.1,N
1703299296.0,286047000.1,N
1703299315.8,286046999.9,N
1703299335.7,286047000.9,N
1703299355.5,286047000.6,N
1703299375.3,286047002.4,N
1703299395.2,286047004.0,Y
1703299415.0,286047002.5,P
1703299415.9,286047002.5,N
1703299435.8,286046999.9,N
1703299455.6,286046999.8,N
1703299475.4,286047002.3,N
1703299495.3,286047002.5,N
1703299515.1,286047002.7,N
1703299535.8,286046999.7,N
1703299555.7,286047002.3,N
1703299575.5,286047001.5,N
1703299595.3,286047001.8,N
1703299615.2,286047002.7,N
1703299635.0,286047001.8,N
1703299635.9,286047001.8,N
1703299655.8,286047002.0,N
1703299675.6,286047002.3,N
1703299695.4,286047001.8,N
1703299715.3,286047001.7,N
1703299735.1,286046999.8,N
1703299755.8,286047002.3,N
1703299775.7,286047002.2,N
1703299795.5,286047001.5,N
1703299815.4,286047002.2,N
1703299835.2,286047003.8,Y
1703299855.0,286047002.4,P
1703299855.9,286047002.4,P
1703299875.8,286047002.6,P
1703299895.6,286047002.8,Y
1703299915.5,286046999.0,P
1703299935.3,286046999.2,N
1703299955.1,286046999.3,N
1703299975.9,286046999.3,N
1703299995.7,286046999.4,N
1703300015.5,286047001.0,N
1703300035.4,286046998.4,N
1703300055.2,286046997.3,N
1703300075.1,286046997.9,N
1703300076.0,286046997.9,N
1703300095.8,286046996.9,N
1703300115.6,286046999.3,N
1703300135.5,286046997.0,N
1703300155.3,286046996.6,N
1703300175.1,286046999.1,N
1703300195.9,286046999.0,N
1703300215.7,286046996.6,N
1703300235.6,286046998.5,N
1703300255.4,286046999.9,N
1703300275.2,286047000.7,N
1703300295.1,286046998.9,N
1703300296.0,286046998.9,N
1703300315.8,286046996.5,N
1703300335.6,286046996.6,N
1703300355.5,286046998.7,N
1703300375.3,286046999.6,N
1703300395.2,286046997.0,N
